Location: Zapote
(9.9191°N, 84.0597°W)
Time: 16:58:04
(UTC-06:00)

Transit 2A - Pass Details

Date: 05 March 2021
Orbit: 602 x 957 km, 66.7° (Epoch: 16 April)

Event Time Altitude Azimuth Distance (km) Brightness Sun altitude
Rises 17:22:58 0° 232° (SW) 3,511 10.6 5.1°
Reaches altitude 10° 17:26:22 10° 250° (WSW) 2,511 10.7 4.2°
Maximum altitude 17:30:11 18° 291° (WNW) 1,929 9.3 3.3°
Drops below altitude 10° 17:33:49 10° 334° (NNW) 2,353 8.8 2.4°
Sets 17:36:53 0° 353° (N) 3,206 9.2 1.6°
